Find KUIPER-00364

NORAD ID: 68867 Int'l Des: 2026-095D Owner: KUIP Country: US Constellation: amazon-leo operational
LEOCIRCULAR

当前视图

正在加载3D地球...

About KUIPER-00364

KUIPER-00364 (NORAD 68867) is a amazon-leo constellation satellite launched Apr 28, 2026 by KUIP of US. It operates in LEO, CIRCULAR orbit with a mass of 490.00 kg.

关于 KUIPER-00364

正在加载描述...

即将过境

Passes for default location (London). Set your location on the main map for personalized predictions.

高度历史

Loading altitude history...

两行轨道根数

1 68867U 26095D 26169.25002315 -.00045977 00000-0 -48284-2 0 9991
2 68867 51.8982 240.9959 0003248 6.5297 318.4158 14.89141218 5020
Epoch: Jun 18, 2026 • Age: 9 hours

当前状态

高度 604.7 km
速度 7.56 km/s
星下点 36.72°N, 105.02°W
发射日期 Apr 28, 2026
运行时间 0.1 years
类型 internet

技术详情

分类 Payload
质量 490.00 kg
干质量 490.00 kg
总质量 490.00 kg
长度 1.80 m
直径 0.70 m
跨度 5.00 m
形状 Box + 2 pan
制造商 KUIP
平台类型 Kuiper
阶段状态 In Orbit
所有者/国家 KUIP/US

Most Searched